sat.trackr.live / text

‹ back to catalog

STARLINK-31569

NORAD 59857 · 2024-097Y

PAYLOAD ACTIVE UNKNOWN

§ Identity

Operator
Country
US
Launch date
2024-05-23
Launch site
AFETR
Launch vehicle
Mass (kg)
RCS (m²)

Purposes: comms

External: N2YO · Heavens-Above · Gunter

§ Orbital elements

Epoch: 2026-09-21T05:52:48.298944Z

Period
94.27 min
Inclination
43.0012°
Eccentricity
0.0000932
Mean motion
15.27548806 rev/d
Perigee alt
482.5 km
Apogee alt
483.8 km
Semi-major
6,861.3 km
B*
-1.1186e-4
RAAN
250.0353°
Arg perigee
257.7183°
Mean anomaly
102.3565°
Rev number
13,182

§ Raw data

STARLINK-315691 59857U 24097Y   26264.24500346 -.00003336  00000+0 -11186-3 0  99962 59857  43.0012 250.0353 0000932 257.7183 102.3565 15.27548806131824

JSON: /api/v1/satellites/59857 · /tle

For live sub-satellite position, see the globe view (requires WebGL).

§ Visibility from observer

Set your observer location to see the next 7 days of passes ≥ 10°. The values pass through the URL so the page stays shareable.

No JS? Fill the form by hand. The geolocation button needs JavaScript.